Location: Dana
(41.8364°N, 106.7042°W)
Time: 13:42:53
(UTC+00:00)

Transit 4A - Pass Details

Date: 18 May 2026
Orbit: 860 x 980 km, 66.8° (Epoch: 7 June)

Event Time Altitude Azimuth Distance (km) Brightness Sun altitude
Rises 21:29:56 0° 336° (NNW) 3,684 11.0 52.0°
Reaches altitude 10° 21:33:09 10° 351° (N) 2,739 10.4 51.4°
Maximum altitude 21:38:04 22° 41° (NE) 1,981 9.5 50.6°
Drops below altitude 10° 21:42:56 10° 91° (E) 2,720 10.1 49.7°
Sets 21:46:06 0° 106° (ESE) 3,653 10.7 49.2°
